User: anonymous   Login
Location: Unspecified
(0.0000°N, 0.0000°E)
Time: 21:52:35
(UTC+00:00)
Language:

Kosmos-1333 - Orbit

View from above orbital plane
View from above orbital plane
View from above satellite
View from above satellite

Ground track
Ground track

The orbit data is extracted from the following two-line orbital elements,

1 13033U 82003A   17082.64605594 +.00000073 +00000-0 +62459-4 0  9990
2 13033 082.9416 136.5416 0031657 207.7901 261.8460 13.73190373763297
Epoch (UTC): 23 March 2017 15:30:19
Eccentricity: 0.0031657
inclination: 82.9416°
perigee height: 965 km
apogee height: 1011 km
right ascension of ascending node: 136.5416°
argument of perigee: 207.7901°
revolutions per day: 13.73190373
mean anomaly at epoch: 261.8460°
orbit number at epoch: 76329

The dashed part of the orbit path shows where the satellite is in the earth's shadow,  

DLR